TimeMST,TemperatureF,Dew PointF,Humidity,Sea Level PressureIn,VisibilityMPH,Wind Direction,Wind SpeedMPH,Gust SpeedMPH,PrecipitationIn,Events,Conditions,WindDirDegrees,DateUTC
12:53 AM,30.9,25.0,79,30.38,10.0,SW,10.4,-,N/A,,Clear,220,2013-11-13 07:53:00
1:53 AM,28.0,23.0,81,30.37,10.0,SW,8.1,-,N/A,,Clear,220,2013-11-13 08:53:00
2:53 AM,28.9,23.0,78,30.34,10.0,SSW,10.4,-,N/A,,Clear,200,2013-11-13 09:53:00
3:53 AM,28.9,24.1,82,30.32,10.0,South,12.7,-,N/A,,Clear,190,2013-11-13 10:53:00
4:53 AM,30.0,24.1,79,30.32,10.0,SSW,11.5,-,N/A,,Clear,200,2013-11-13 11:53:00
5:53 AM,33.1,26.1,75,30.30,10.0,SW,11.5,-,N/A,,Clear,220,2013-11-13 12:53:00
6:53 AM,34.0,27.0,75,30.30,10.0,WSW,11.5,-,N/A,,Clear,240,2013-11-13 13:53:00
7:53 AM,41.0,30.9,67,30.28,10.0,WSW,8.1,-,N/A,,Clear,240,2013-11-13 14:53:00
8:53 AM,51.1,30.9,46,30.23,10.0,SW,11.5,-,N/A,,Clear,230,2013-11-13 15:53:00
9:53 AM,61.0,27.0,27,30.19,10.0,SW,12.7,-,N/A,,Clear,230,2013-11-13 16:53:00
10:53 AM,64.9,23.0,20,30.14,10.0,SW,13.8,-,N/A,,Clear,220,2013-11-13 17:53:00
11:53 AM,64.9,28.0,25,30.12,10.0,WSW,11.5,-,N/A,,Clear,240,2013-11-13 18:53:00
12:53 PM,66.9,27.0,22,30.06,10.0,SW,10.4,-,N/A,,Clear,230,2013-11-13 19:53:00
1:53 PM,70.0,24.1,18,30.04,10.0,SW,8.1,-,N/A,,Clear,230,2013-11-13 20:53:00
2:53 PM,69.1,19.9,15,30.02,10.0,SSW,10.4,-,N/A,,Clear,210,2013-11-13 21:53:00
3:53 PM,63.0,23.0,22,30.03,10.0,South,9.2,-,N/A,,Clear,190,2013-11-13 22:53:00
4:53 PM,51.1,24.1,35,30.05,10.0,South,12.7,-,N/A,,Clear,190,2013-11-13 23:53:00
5:53 PM,46.0,25.0,44,30.05,10.0,South,13.8,-,N/A,,Clear,190,2013-11-14 00:53:00
6:53 PM,44.1,25.0,47,30.04,10.0,South,10.4,-,N/A,,Clear,190,2013-11-14 01:53:00
7:53 PM,39.9,25.0,55,30.02,10.0,SW,8.1,-,N/A,,Clear,230,2013-11-14 02:53:00
8:53 PM,37.9,26.1,62,29.97,9.0,WSW,8.1,-,N/A,,Clear,240,2013-11-14 03:53:00
9:53 PM,37.9,26.1,62,29.93,10.0,SW,9.2,-,N/A,,Clear,220,2013-11-14 04:53:00
10:53 PM,37.9,26.1,62,29.89,9.0,West,8.1,-,N/A,,Clear,260,2013-11-14 05:53:00
11:53 PM,36.0,26.1,67,29.89,9.0,West,10.4,-,N/A,,Clear,270,2013-11-14 06:53:00